Weather in Bel'kachi

Russia / Sakha (Yakutia) Republic     59°11′13″N   131°54′09″E
temp.,
°C
wind,
m/s
gust,
m/s
humid.,
%
clouds,
%
prec.,
mm/h
press.,
hPa
HPBL,
m
24 may, tue
tue2400:00+5nw11652 0.0 101011
03:00+3sw11823 0.0 101215
06:00+7wsw247158 0.0 1012226
09:00+13sw235222 0.0 1012832
12:00+17wsw233264 0.0 10102501
15:00+17wsw563989 0.0 10092229
18:00+14w5960100 0.2 10081686
21:00+9sw4995100 2.6 1008526
25 may, wed
wed2500:00+9sw2797100 5.4 1007425
03:00+8w289773 6.3 1007311
06:00+8sw259491 0.0 1006246
09:00+11sw41087100 0.1 1003963
12:00+12wnw71484100 2.2 10011447
15:00+9nw5967100 2.4 10051327
18:00+7wnw496597 0.1 10071546
21:00+6w496390 0.1 1008648
26 may, thu
thu2600:00+4w31071100 0.1 1009436
03:00+1wsw3108599 0.1 1009279
06:00+4w4871100 0.0 1008586
09:00+8wnw5851100 0.0 10071742
12:00+10wnw4747100 0.0 10062020
15:00+9nnw4553100 0.1 10061393
18:00+8n445589 0.0 10061097
21:00+3nne2276100 0.0 100842
27 may, fri
fri2700:00+2ne1184100 0.0 100821
03:00+1ne2693100 0.0 1008140
06:00+3ne368186 0.0 1008295
09:00+8ene4553100 0.0 10071080
12:00+11ene4639100 0.0 10051792
15:00+13e3536100 0.0 10052076
18:00+12ese4749100 0.0 10051670
21:00+8se1470100 0.1 1006106
28 may, sat
sat2800:00+8ene41176100 0.0 1004623
03:00+8e41081100 0.0 1003592
06:00+8e4976100 0.0 1002618
09:00+13se585998 0.0 10021097
12:00+17se61150100 0.0 10011516
15:00+15se61259100 0.0 10031278
18:00+12ese61366100 0.0 10031193
21:00+10ese51472100 0.0 10041119